Location: Academy at Carrie F Thomas
(32.8490°N, 97.2053°W)
Time: 02:53:49
(UTC+00:00)

Meteor 1-25 Rocket - Pass Details

Date: 08 July 2022
Orbit: 835 x 892 km, 81.2° (Epoch: 13 August)

Event Time Altitude Azimuth Distance (km) Brightness Sun altitude
Exits shadow 09:50:59 19° 267° (W) 1,978 5.7 -17.4°
Maximum altitude 09:52:27 21° 287° (WNW) 1,891 5.7 -17.2°
Drops below altitude 10° 09:56:45 10° 335° (NNW) 2,557 6.9 -16.5°
Sets 09:59:51 0° 351° (N) 3,494 7.9 -16.0°
